Meteo Giornale » Osservazioni meteo Polonia » Zielona Gora
ore: 22:00 - Osservazioni Meteo Zielona Gora
Lat. 51° 56' N Lon. 15° 32' E Alt. 192 metri s.l.m.
16 °C
Sereno
Temp. 24 Ore
15 °C
23 °C
Sud-Ovest
11.1 Km/h
Dew point 11 °C
Umidità 72 %
Visibilità 10 Km
Il sole sorge alle ore 06:09
Il sole tramonta alle ore 19:45
| Data e Ora | Cielo e Fenomeni | T °C | DP °C | Um. % | Pres. hPa | Vis. km | Vento km/h | |
|---|---|---|---|---|---|---|---|---|
| Oggi h: 22:00 | Sereno | 16 | 11 | 72 | 1018 | 10 | SO 11.1 | |
| Oggi h: 21:30 | Sereno | 16 | 11 | 72 | 1018 | 10 | O/SO 14.8 | |
| Oggi h: 21:00 | Sereno | 17 | 11 | 67 | 1018 | 10 | O/SO 14.8 | |
| Oggi h: 20:30 | Sereno | 18 | 12 | 67 | 1018 | 10 | O/SO 16.7 | |
| Oggi h: 20:00 | Sereno | 18 | 13 | 72 | 1017 | 10 | O/SO 13 | |
| Oggi h: 19:30 | Sereno | 20 | 13 | 64 | 1017 | 10 | O/SO 14.8 | |
| Oggi h: 19:00 | Poco Nuvoloso | 20 | 12 | 59 | 1017 | 10 | O/SO 20.3 | |
| Oggi h: 18:30 | Poco Nuvoloso | 22 | 13 | 56 | 1017 | 10 | O/SO 20.3 | |
| Oggi h: 18:00 | Poco Nuvoloso | 22 | 13 | 56 | 1017 | 10 | O/SO 20.3 | |
| Oggi h: 17:30 | Poco Nuvoloso | 23 | 12 | 49 | 1017 | 10 | O/SO 24 | |
| Oggi h: 17:00 | Poco Nuvoloso | 22 | 11 | 49 | 1017 | 10 | O 24 | |
| Oggi h: 16:30 | Poco Nuvoloso | 22 | 12 | 53 | 1017 | 10 | O/SO 25.9 | |
| Oggi h: 16:00 | Poco Nuvoloso | 22 | 12 | 53 | 1017 | 10 | O 24 | |
| Oggi h: 15:30 | Nuvoloso | 21 | 12 | 56 | 1017 | 10 | O 24 | |
| Oggi h: 15:00 | Nuvoloso | 21 | 12 | 56 | 1017 | 10 | O 25.9 | |
| Oggi h: 14:30 | Nuvoloso | 21 | 13 | 60 | 1017 | 10 | O 24 | |
| Oggi h: 14:00 | Molto Nuvoloso | 21 | 13 | 60 | 1017 | 10 | O 24 | |
| Oggi h: 13:30 | Molto Nuvoloso | 20 | 13 | 64 | 1017 | 10 | O 25.9 | |
| Oggi h: 13:00 | Molto Nuvoloso | 19 | 14 | 72 | 1018 | 10 | O 27.8 | |
| Oggi h: 12:30 | Molto Nuvoloso | 19 | 13 | 68 | 1017 | 10 | O 25.9 | |
| Oggi h: 12:00 | Molto Nuvoloso | 18 | 14 | 77 | 1017 | 10 | O 20.3 | |
| Oggi h: 11:30 | Nuvoloso | 18 | 14 | 77 | 1017 | 10 | O/SO 25.9 | |
| Oggi h: 11:00 | Molto Nuvoloso | 17 | 14 | 82 | 1017 | 10 | O/SO 24 | |
| Oggi h: 10:30 | Coperto | 17 | 14 | 82 | 1017 | 10 | O/SO 16.7 | |
| Oggi h: 10:00 | Pioggia | 16 | 14 | 87 | 1017 | 3 | O 27.8 | |
| Oggi h: 09:30 | Molto Nuvoloso | 16 | 14 | 87 | 1016 | 10 | O 22.2 | |
| Oggi h: 09:00 | Pioggia | 15 | 14 | 93 | 1016 | 3 | O 27.8 | |
| Oggi h: 08:30 | Molto Nuvoloso | 17 | 13 | 77 | 1015 | 10 | O 24 | |
| Oggi h: 08:00 | Molto Nuvoloso | 17 | 13 | 77 | 1015 | 10 | O/SO 27.8 | |
| Oggi h: 07:30 | Molto Nuvoloso | 16 | 13 | 82 | 1015 | 10 | O 22.2 | |
| Oggi h: 07:00 | Coperto | 16 | 12 | 77 | 1014 | 10 | O/SO 20.3 | |
| Oggi h: 06:30 | Molto Nuvoloso | 16 | 12 | 77 | 1014 | 10 | O/SO 20.3 | |
| Oggi h: 06:00 | Molto Nuvoloso | 15 | 12 | 82 | 1014 | 10 | O/SO 14.8 | |
| Oggi h: 05:30 | Poco Nuvoloso | 15 | 12 | 82 | 1014 | 10 | O/SO 14.8 | |
| Oggi h: 05:00 | Sereno | 15 | 12 | 82 | 1014 | 10 | O/SO 18.5 | |



